TimeCET,TemperatureF,Dew PointF,Humidity,Sea Level PressureIn,VisibilityMPH,Wind Direction,Wind SpeedMPH,Gust SpeedMPH,PrecipitationIn,Events,Conditions,WindDirDegrees,DateUTC
12:00 AM,42.8,33.8,70,30.09,6.2,NNW,16.1,-,N/A,,Scattered Clouds,340,2013-01-06 23:00:00
12:21 AM,41.0,33.8,76,30.09,6.2,NNW,13.8,-,N/A,Rain,Light Rain,340,2013-01-06 23:21:00
12:30 AM,42.8,33.8,70,30.09,6.2,NNW,13.8,-,N/A,Rain,Light Rain,340,2013-01-06 23:30:00
1:00 AM,41.0,35.6,81,30.09,6.2,North,10.4,-,N/A,Rain,Light Rain,350,2013-01-07 00:00:00
1:30 AM,39.2,35.6,87,30.12,6.2,NNW,12.7,-,N/A,Rain,Light Rain,340,2013-01-07 00:30:00
2:00 AM,37.4,33.8,87,30.12,6.2,ENE,11.5,-,N/A,Rain,Light Rain,70,2013-01-07 01:00:00
2:30 AM,35.6,32.0,87,30.15,6.2,ENE,12.7,-,N/A,Rain,Light Rain,70,2013-01-07 01:30:00
3:00 AM,33.8,32.0,93,30.15,3.7,ENE,13.8,-,N/A,Rain,Light Rain,60,2013-01-07 02:00:00
3:30 AM,33.8,30.2,87,30.15,3.7,NE,11.5,-,N/A,Rain,Light Rain,50,2013-01-07 02:30:00
4:04 AM,35.6,28.4,75,30.18,3.7,NE,10.4,-,N/A,Rain,Light Rain,50,2013-01-07 03:04:00
4:30 AM,33.8,28.4,81,30.18,6.2,NE,9.2,-,N/A,,Overcast,50,2013-01-07 03:30:00
5:00 AM,33.8,28.4,81,30.18,6.2,NNE,6.9,-,N/A,,Mostly Cloudy,30,2013-01-07 04:00:00
5:30 AM,33.8,28.4,81,30.18,6.2,NNE,6.9,-,N/A,,Mostly Cloudy,20,2013-01-07 04:30:00
6:00 AM,33.8,28.4,81,30.21,6.2,NNE,6.9,-,N/A,,Mostly Cloudy,20,2013-01-07 05:00:00
6:30 AM,33.8,28.4,81,30.21,6.2,NNE,6.9,-,N/A,,Scattered Clouds,30,2013-01-07 05:30:00
7:00 AM,34,26,64,30.28,19,NNE,8.9,,,,Partly Cloudy,30,2013-01-07 06:00:00
7:00 AM,33.8,28.4,81,30.21,6.2,NE,8.1,-,N/A,,Partly Cloudy,40,2013-01-07 06:00:00
7:30 AM,33.8,26.6,75,30.24,6.2,NE,9.2,-,N/A,,Partly Cloudy,40,2013-01-07 06:30:00
8:00 AM,33.8,26.6,75,30.24,6.2,NE,8.1,-,N/A,,Partly Cloudy,40,2013-01-07 07:00:00
8:30 AM,33.8,26.6,75,30.27,6.2,NE,4.6,-,N/A,,Partly Cloudy,50,2013-01-07 07:30:00
9:00 AM,32.0,26.6,80,30.27,6.2,NNE,4.6,-,N/A,,Partly Cloudy,30,2013-01-07 08:00:00
9:30 AM,33.8,24.8,70,30.27,6.2,North,4.6,-,N/A,,Partly Cloudy,10,2013-01-07 08:30:00
10:00 AM,33.8,24.8,70,30.30,6.2,NE,3.5,-,N/A,,Partly Cloudy,40,2013-01-07 09:00:00
10:30 AM,33.8,24.8,70,30.30,6.2,Variable,2.3,-,N/A,,Partly Cloudy,0,2013-01-07 09:30:00
11:00 AM,35.6,23.0,60,30.30,6.2,NE,6.9,-,N/A,,Scattered Clouds,50,2013-01-07 10:00:00
11:30 AM,33.8,24.8,70,30.30,6.2,East,9.2,-,N/A,,Scattered Clouds,80,2013-01-07 10:30:00
12:00 PM,33.8,26.6,75,30.30,6.2,East,9.2,-,N/A,,Partly Cloudy,80,2013-01-07 11:00:00
12:30 PM,33.8,26.6,75,30.30,6.2,ENE,9.2,-,N/A,,Partly Cloudy,70,2013-01-07 11:30:00
1:00 PM,35,26,60,30.36,12,ENE,11.2,,,,Scattered Clouds,70,2013-01-07 12:00:00
1:00 PM,33.8,26.6,75,30.30,6.2,ENE,9.2,-,N/A,,Partly Cloudy,70,2013-01-07 12:00:00
1:30 PM,33.8,26.6,75,30.30,6.2,East,10.4,-,N/A,,Partly Cloudy,80,2013-01-07 12:30:00
2:00 PM,33.8,26.6,75,30.30,6.2,ENE,10.4,-,N/A,,Partly Cloudy,70,2013-01-07 13:00:00
2:30 PM,33.8,26.6,75,30.30,6.2,ENE,9.2,-,N/A,,Partly Cloudy,70,2013-01-07 13:30:00
3:00 PM,32.0,24.8,75,30.33,-9999.0,East,9.2,-,N/A,,Clear,80,2013-01-07 14:00:00
3:30 PM,30.2,24.8,80,30.33,-9999.0,East,9.2,-,N/A,,Clear,80,2013-01-07 14:30:00
4:00 PM,30.2,24.8,80,30.33,-9999.0,ENE,10.4,-,N/A,,Clear,70,2013-01-07 15:00:00
4:30 PM,30.2,23.0,75,30.33,-9999.0,ENE,11.5,-,N/A,,Clear,70,2013-01-07 15:30:00
5:00 PM,30.2,23.0,75,30.33,-9999.0,ENE,10.4,-,N/A,,Clear,70,2013-01-07 16:00:00
5:30 PM,28.4,23.0,80,30.33,-9999.0,ENE,8.1,-,N/A,,Clear,70,2013-01-07 16:30:00
6:00 PM,28.4,23.0,80,30.36,-9999.0,ENE,5.8,-,N/A,,Clear,70,2013-01-07 17:00:00
6:30 PM,28.4,23.0,80,30.36,-9999.0,East,6.9,-,N/A,,Clear,80,2013-01-07 17:30:00
7:00 PM,28.4,23.0,80,30.36,-9999.0,ENE,8.1,-,N/A,,Clear,70,2013-01-07 18:00:00
7:30 PM,26.6,21.2,80,30.36,-9999.0,ENE,6.9,-,N/A,,Clear,70,2013-01-07 18:30:00
8:00 PM,26.6,21.2,80,30.36,-9999.0,ENE,6.9,-,N/A,,Clear,60,2013-01-07 19:00:00
8:30 PM,26.6,21.2,80,30.36,-9999.0,ENE,8.1,-,N/A,,Clear,60,2013-01-07 19:30:00
9:00 PM,26.6,21.2,80,30.36,-9999.0,ENE,6.9,-,N/A,,Clear,60,2013-01-07 20:00:00
9:06 PM,26.6,21.2,80,30.36,-9999.0,ENE,8.1,-,N/A,,Clear,60,2013-01-07 20:06:00
9:30 PM,26.6,21.2,80,30.36,-9999.0,ENE,5.8,-,N/A,,Clear,60,2013-01-07 20:30:00
10:00 PM,24.8,21.2,86,30.36,-9999.0,ENE,6.9,-,N/A,,Clear,70,2013-01-07 21:00:00
10:30 PM,26.6,19.4,74,30.36,-9999.0,ENE,6.9,-,N/A,,Clear,60,2013-01-07 21:30:00
11:00 PM,26.6,19.4,74,30.36,-9999.0,NE,6.9,-,N/A,,Clear,50,2013-01-07 22:00:00
11:30 PM,26.6,19.4,74,30.36,6.2,NE,6.9,-,N/A,,Mostly Cloudy,50,2013-01-07 22:30:00